This is the latest recevied weather packets stored in our database for station/object KF4WSW-13. If no packets are shown the sender has not sent any weather packets the latest 10 day(s).
| Time | Temp. | Humidity | Pressure | Rain* | Wind** | Luminosity | Snow |
|---|---|---|---|---|---|---|---|
| 1777402834 | 26.11° C | 73% | 1017.5 hPa | 0 mm | - | 692 W/m² | - |
| 1777402531 | 26.11° C | 72% | 1017.7 hPa | 0 mm | - | 702 W/m² | - |
| 1777402228 | 26.11° C | 75% | 1017.4 hPa | 0 mm | - | 714 W/m² | - |
| 1777401923 | 25.56° C | 75% | 1017.9 hPa | 0 mm | - | 720 W/m² | - |
| 1777401622 | 25.56° C | 76% | 1017.9 hPa | 0 mm | - | 734 W/m² | - |
| 1777401319 | 25.56° C | 76% | 1017.9 hPa | 0 mm | - | 740 W/m² | - |
| 1777401015 | 25.56° C | 76% | 1018.1 hPa | 0 mm | - | 750 W/m² | - |
| 1777400710 | 26.11° C | 76% | 1017.7 hPa | 0 mm | - | 758 W/m² | - |
| 1777400409 | 26.11° C | 75% | 1017.9 hPa | 0 mm | - | 764 W/m² | - |
| 1777400104 | 26.11° C | 74% | 1018 hPa | 0 mm | - | 765 W/m² | - |
| 1777399801 | 25.56° C | 76% | 1017.8 hPa | 0 mm | - | 768 W/m² | - |
| 1777399498 | 25.56° C | 77% | 1017.9 hPa | 0 mm | - | 776 W/m² | - |
| 1777399195 | 25.56° C | 76% | 1017.7 hPa | 0 mm | - | 780 W/m² | - |
| 1777398892 | 25.56° C | 76% | 1017.8 hPa | 0 mm | - | 784 W/m² | - |
| 1777398589 | 26.11° C | 76% | 1017.9 hPa | 0 mm | - | 785 W/m² | - |
| 1777398285 | 25.56° C | 75% | 1017.7 hPa | 0 mm | - | 789 W/m² | - |
| 1777397983 | 25.56° C | 74% | 1017.7 hPa | 0 mm | - | 789 W/m² | - |
| 1777397679 | 26.11° C | 74% | 1017.7 hPa | 0 mm | - | 789 W/m² | - |
| 1777397375 | 25.56° C | 75% | 1017.8 hPa | 0 mm | - | 789 W/m² | - |
| 1777397071 | 25.56° C | 74% | 1017.9 hPa | 0 mm | - | 792 W/m² | - |
| 1777396768 | 26.67° C | 73% | 1017.8 hPa | 0 mm | - | 790 W/m² | - |
| 1777396465 | 26.11° C | 71% | 1017.7 hPa | 0 mm | - | 790 W/m² | - |
| 1777396162 | 26.11° C | 69% | 1018 hPa | 0 mm | - | 789 W/m² | - |
| 1777395858 | 26.11° C | 71% | 1017.9 hPa | 0 mm | - | 789 W/m² | - |
| 1777395554 | 26.67° C | 70% | 1017.9 hPa | 0 mm | - | 789 W/m² | - |
* Rain latest hour (hover to see other rain measurements)
** Current wind speed in m/s (hover to see current wind gust speed)